RH
21 20 19 19 17 16 16 17 17 17 16 16 14 14 14 13 13 13 12 12 12 12 11 11 11 10 10 9 9 9 9 9 9 10 11 11 13 16 19 21 23 24 24 29 39 49 57 63 66 69 71 77 83 86 89 91 87 85 87 91 94 95 95 95 93 85 81 85 86 80 71 56 44 45
21 20 20 19 17 17 17 17 18 16 16 15 14 13 12 12 11 10 9 8 8 8 7 6 6 5 5 5 5 4 4 5 4 5 5 5 7 8 11 15 17 20 23 26 34 43 52 60 65 69 71 74 80 84 89 92 91 89 88 90 92 94 94 94 94 91 84 82 86 90 87 70 50 44
21 21 20 19 18 17 17 17 17 15 14 13 12 12 10 10 9 7 7 6 5 5 3 3 2 2 2 2 2 2 2 2 2 2 3 2 3 4 6 9 11 14 19 23 28 36 45 54 63 70 74 75 77 82 86 90 93 92 89 90 93 94 94 93 95 97 90 84 89 96 95 86 69 49
22 21 21 20 18 18 17 17 16 14 13 11 10 10 8 7 6 5 5 4 3 3 2 2 2 1 2 1 1 2 1 1 1 1 2 2 2 2 2 4 6 8 13 18 23 29 36 43 52 62 72 78 80 83 86 88 90 92 92 92 92 92 93 93 95 98 94 88 89 92 90 91 88 70
22 22 22 20 19 18 17 16 15 13 11 10 8 8 6 5 5 4 3 2 2 2 1 2 2 1 2 2 1 1 1 1 1 1 1 1 1 2 2 2 3 4 7 11 16 23 30 37 43 50 59 69 77 82 86 89 89 90 90 91 91 91 93 94 95 95 96 95 91 86 85 91 100 93
22 22 22 20 19 18 17 15 14 12 10 8 7 6 5 4 3 2 2 2 2 2 2 2 2 2 2 2 1 1 1 1 1 1 1 1 1 1 1 1 1 2 3 5 9 14 22 31 40 47 52 59 66 72 78 83 87 89 89 89 90 91 91 95 99 95 94 98 95 87 84 89 98 100
22 23 22 21 19 17 16 14 13 11 8 7 6 5 4 3 3 2 2 2 2 2 2 2 2 2 1 2 2 1 1 1 1 1 1 1 1 1 1 1 1 2 1 2 5 8 12 19 27 37 44 49 54 60 65 71 78 84 88 89 90 91 90 93 96 95 93 98 100 94 86 83 91 99
22 23 22 21 19 17 16 14 12 10 7 6 5 4 3 2 2 2 2 3 3 2 2 2 2 2 1 2 1 1 2 1 1 1 1 1 1 1 1 1 1 1 2 2 4 7 9 11 15 20 27 33 38 43 49 55 63 71 80 86 89 91 91 92 93 94 96 98 100 101 93 84 89 97
23 23 22 21 19 16 15 13 11 8 6 5 4 3 3 2 2 3 3 3 2 2 2 2 1 2 1 1 1 1 2 1 1 2 1 2 2 1 1 1 1 1 2 3 5 7 9 11 12 14 17 21 25 29 32 38 47 56 65 75 83 89 91 92 93 94 97 98 97 101 99 92 90 94
23 23 23 21 18 16 14 11 9 7 5 5 4 3 2 2 3 3 3 2 2 2 2 1 2 2 2 2 2 2 2 2 2 2 2 2 2 2 1 1 2 1 2 3 3 5 7 9 12 13 14 16 17 19 22 26 36 47 57 64 71 80 87 92 95 94 95 97 98 101 102 99 96 94
23 24 23 21 18 16 13 11 8 6 5 4 3 2 2 3 3 2 2 2 2 2 1 1 2 1 1 2 2 2 2 2 2 2 2 2 2 2 2 2 2 1 2 4 6 9 10 13 16 19 20 21 20 19 18 20 28 41 55 63 67 72 79 87 94 97 96 96 98 100 101 101 99 94
24 24 23 20 18 15 12 10 7 5 4 3 2 2 2 3 3 2 2 2 1 2 2 2 2 1 2 2 2 2 2 2 2 2 2 2 2 2 2 2 2 2 2 4 7 12 17 19 21 23 27 31 33 34 32 27 28 35 47 59 66 69 73 80 89 96 98 98 98 99 100 101 99 95
24 24 23 20 17 14 11 8 6 4 3 2 2 2 3 3 2 2 2 2 2 2 1 2 2 1 2 2 2 2 2 2 2 2 2 2 2 2 2 2 2 2 2 2 3 9 16 21 25 28 33 37 41 44 46 43 41 40 44 53 60 65 69 75 83 92 98 99 99 99 100 100 100 99
25 24 23 19 16 12 9 6 5 3 3 2 2 3 2 2 2 2 2 2 2 2 2 2 2 2 2 2 2 2 2 3 3 2 3 3 2 2 2 2 2 2 2 2 2 8 17 25 32 36 40 43 45 47 49 51 51 50 50 54 58 61 65 72 79 89 97 100 100 99 99 100 100 100
25 24 22 18 14 10 7 5 3 2 2 2 2 3 2 2 2 2 2 2 2 2 2 2 2 2 2 3 3 3 3 3 3 3 3 3 2 3 2 2 2 2 2 2 2 7 16 25 35 43 46 46 45 46 49 52 54 54 54 57 60 61 64 71 78 87 96 100 101 100 98 100 101 100
25 24 22 18 13 9 6 4 3 2 2 2 2 2 2 2 2 2 2 2 2 2 2 2 3 3 3 3 3 3 3 3 3 3 3 3 3 3 2 2 2 2 2 2 1 4 11 20 34 46 51 48 43 42 47 53 57 60 60 61 64 66 69 74 80 86 93 98 101 101 99 99 101 99
25 24 21 17 13 9 6 4 3 2 2 2 2 2 2 2 2 2 2 2 2 2 3 3 3 3 3 3 3 3 3 3 3 3 3 3 3 3 3 2 3 2 2 2 2 4 10 18 32 45 50 48 45 43 47 54 59 66 71 72 71 72 73 76 81 87 94 98 100 100 99 99 100 100
26 24 20 16 11 8 5 3 2 2 2 2 2 2 2 2 2 2 2 2 3 3 3 3 3 3 3 3 3 3 3 3 3 3 3 3 3 3 3 3 3 3 2 2 2 5 12 20 32 43 48 53 57 56 55 57 58 64 73 77 80 83 81 78 80 84 90 96 99 101 100 99 98 100
26 23 18 14 10 7 5 3 2 2 2 2 2 2 2 2 2 2 3 3 3 3 3 3 3 3 3 3 3 3 3 3 4 3 3 4 3 3 3 3 3 3 2 3 3 5 11 19 31 41 48 56 66 68 66 66 64 62 66 72 79 87 88 82 79 82 86 92 98 101 99 97 98 100
25 21 16 12 9 6 4 2 2 2 2 2 2 2 2 3 2 3 3 3 3 3 3 3 3 3 3 3 4 4 4 4 4 4 4 4 4 4 3 3 3 3 3 3 4 5 9 15 26 37 46 56 66 69 68 71 73 71 70 71 74 83 91 90 85 87 93 97 99 101 99 97 101 103
24 19 13 10 8 6 4 2 2 2 2 2 2 2 2 2 2 3 3 3 3 3 3 3 3 3 3 4 4 4 4 4 4 4 4 4 4 4 4 4 3 3 3 3 2 5 9 14 22 34 43 51 61 67 67 69 74 75 73 74 76 82 93 97 94 95 100 100 99 99 99 99 101 102
22 17 12 9 8 5 3 2 2 2 2 2 2 2 2 2 3 3 3 3 3 3 4 3 3 4 4 4 4 4 4 5 4 4 4 4 4 4 4 4 4 3 3 3 2 5 11 15 23 35 46 50 55 63 70 75 79 77 72 73 79 86 95 100 99 98 99 100 99 99 100 100 100 99
20 14 10 9 7 4 3 2 2 2 2 2 2 2 2 2 3 3 3 3 3 3 3 4 3 4 4 4 4 5 5 5 5 5 5 4 4 5 4 4 4 3 3 3 2 4 8 12 19 31 46 54 56 63 77 89 92 88 80 77 80 86 92 97 99 98 97 97 99 100 99 99 99 99
17 12 9 8 6 3 2 2 2 2 2 2 2 2 2 3 3 3 3 3 3 3 3 4 4 4 4 4 5 5 5 5 5 5 5 5 4 5 4 4 4 4 4 3 3 3 4 8 14 22 34 47 54 63 80 96 99 95 90 89 89 86 83 84 90 94 95 94 95 98 100 100 100 100
15 11 8 7 5 3 2 2 3 3 2 2 2 2 3 3 3 3 4 3 4 4 3 4 4 4 4 4 5 5 5 5 6 5 5 5 5 5 5 5 4 4 4 4 3 3 3 4 8 13 19 30 46 63 78 90 96 93 88 89 95 96 89 83 82 85 92 96 96 97 97 97 98 100
14 10 7 5 3 2 3 3 2 3 2 3 3 2 3 3 3 3 4 3 4 4 3 4 4 4 5 5 5 6 6 6 6 6 5 5 5 5 5 5 5 4 4 4 3 4 4 2 3 7 9 16 37 62 76 81 88 92 84 77 83 93 98 98 92 86 87 92 93 91 89 90 93 98
13 9 5 4 3 2 3 3 2 3 3 3 3 3 3 3 3 3 4 4 4 4 4 4 4 5 5 5 6 6 6 6 6 6 6 6 6 6 5 5 5 5 4 5 4 3 4 3 2 4 5 8 24 50 66 71 79 85 78 69 70 76 84 93 98 98 96 96 95 95 96 97 97 98
10 7 4 3 3 2 3 3 3 3 3 3 3 3 3 4 4 4 4 4 4 4 4 4 5 5 6 6 6 6 6 6 6 6 6 6 6 6 6 5 5 5 5 5 5 4 4 4 3 3 3 5 11 25 39 50 61 69 70 70 71 71 72 77 82 87 92 97 100 100 99 100 100 100
8 5 3 3 3 3 3 3 3 3 3 3 3 3 3 4 4 4 4 4 4 4 5 5 5 6 6 6 6 6 6 6 7 6 7 7 6 6 6 6 6 6 6 5 5 5 5 4 4 3 3 3 4 7 13 20 29 38 47 54 58 61 67 73 74 73 74 79 88 94 96 96 97 97
5 4 3 3 3 3 3 3 3 4 3 3 3 4 4 4 4 4 4 4 5 5 5 6 6 6 7 6 6 6 6 6 7 7 7 7 7 7 7 7 7 6 7 6 5 5 5 5 5 4 3 3 3 3 3 5 7 11 17 22 26 33 43 51 57 61 62 62 65 72 80 86 90 92
4 3 3 3 3 3 3 4 4 4 4 4 4 4 4 4 4 4 4 4 5 5 6 6 6 7 7 7 6 7 7 7 7 7 7 7 8 8 7 7 8 7 7 7 7 6 6 6 5 5 4 4 4 3 3 3 3 4 5 6 7 11 15 17 22 33 43 47 48 50 55 64 72 77
3 3 3 3 4 4 4 4 4 4 4 4 4 4 5 5 4 5 5 5 5 5 6 6 7 7 7 7 7 7 7 7 7 8 8 8 8 8 8 8 8 8 8 8 8 7 7 7 7 6 6 5 5 5 4 4 4 4 3 4 4 3 4 5 6 10 16 22 27 31 35 41 48 54
3 3 4 4 4 4 4 5 5 5 5 5 5 5 5 5 5 5 5 5 5 6 6 7 7 8 7 7 8 8 7 8 8 8 8 9 8 8 9 9 9 9 9 9 9 8 8 8 8 7 7 7 6 6 5 5 5 5 4 4 4 4 4 4 4 4 5 6 8 11 14 18 23 29
3 3 4 4 4 4 5 5 5 5 5 5 5 5 5 5 5 5 5 6 6 6 7 7 7 8 8 8 9 9 8 8 9 9 9 9 9 9 9 10 10 10 10 9 9 9 9 9 9 9 8 8 7 7 7 7 6 6 6 5 5 5 5 5 4 4 4 4 4 5 5 6 8 10
3 4 4 4 5 5 5 6 6 6 6 6 6 6 6 5 5 6 6 6 6 7 7 8 8 8 9 9 9 9 9 9 9 9 9 9 10 10 10 10 10 10 10 10 10 10 10 10 10 10 10 9 9 9 9 9 8 8 7 7 6 6 6 6 5 5 5 5 5 5 4 4 5 5
4 4 4 4 5 5 6 6 6 6 6 6 6 6 6 6 6 6 6 6 7 7 7 8 8 9 9 10 10 10 10 10 10 10 10 10 11 11 11 11 11 11 11 11 11 11 11 11 11 11 11 11 11 10 10 10 10 10 9 8 8 8 7 7 6 6 6 6 6 6 5 5 5 4
4 4 5 5 5 6 7 7 7 7 7 7 7 7 7 7 7 7 7 7 7 8 8 8 9 9 9 10 10 10 10 10 10 11 11 11 11 12 12 12 12 13 13 13 14 14 14 14 14 13 13 13 12 12 12 11 11 11 11 11 10 10 9 9 9 8 8 7 7 7 7 6 6 6
4 4 5 6 6 7 8 7 7 8 7 7 8 7 7 8 8 7 8 8 8 8 9 9 10 10 10 11 11 11 11 11 11 11 12 12 12 13 13 14 14 15 15 16 17 17 17 17 17 16 16 17 16 15 15 14 14 13 13 12 12 12 11 11 11 10 10 10 9 9 8 8 8 7
5 5 6 6 7 8 8 8 8 8 8 8 8 8 8 9 9 9 9 9 9 9 10 11 11 11 11 12 12 12 11 12 12 12 12 13 13 14 14 15 15 16 17 18 19 19 19 20 19 19 19 20 19 19 19 18 18 17 16 15 15 14 13 13 12 12 11 11 11 11 10 10 10 9
5 6 6 7 8 9 9 9 9 9 9 9 9 9 10 10 10 10 10 10 11 11 11 12 12 13 13 13 13 13 12 12 12 13 13 13 14 14 15 16 16 17 18 19 20 20 20 21 21 21 21 21 21 22 22 21 21 21 20 20 19 18 17 16 15 15 14 13 13 12 12 11 11 11
6 7 7 8 9 10 10 10 10 10 10 10 10 10 11 11 11 11 11 12 12 13 13 13 13 14 14 14 14 14 14 14 13 13 14 14 14 15 16 17 17 18 19 20 20 20 21 21 21 21 21 22 22 22 22 22 22 22 22 22 22 22 21 21 20 19 17 16 16 15 14 14 13 13
7 8 9 9 10 11 11 11 11 11 11 11 11 11 12 12 12 13 13 13 14 14 14 14 14 14 15 15 15 15 15 15 15 14 14 15 15 15 16 17 17 18 19 19 20 20 20 20 20 20 20 20 20 21 21 21 21 22 22 22 22 22 22 23 23 22 21 21 20 19 18 17 16 15
7 9 10 11 12 12 12 12 12 12 12 12 12 13 13 13 14 14 14 15 15 15 15 16 16 16 16 16 16 16 15 15 16 15 15 16 16 16 17 17 17 18 18 19 19 19 19 19 19 20 20 21 21 21 22 22 22 22 22 22 22 22 23 23 23 23 23 23 23 22 22 21 20 19
8 9 11 12 13 13 13 13 13 13 13 13 13 14 14 15 15 15 16 16 16 17 17 17 18 18 18 18 19 19 18 18 19 18 18 19 18 19 19 19 19 20 21 21 21 21 22 22 23 23 24 24 25 26 26 26 26 26 26 26 26 25 25 25 25 25 25 25 25 25 24 24 23 22
9 10 12 13 14 14 15 15 15 14 15 15 15 15 16 16 16 16 17 17 18 19 20 20 20 21 21 22 22 23 22 23 23 23 23 23 23 23 23 23 23 24 24 24 25 25 25 26 26 27 27 27 27 28 29 28 29 29 30 30 30 30 30 30 29 29 28 27 27 27 27 26 26 26
Wind_Speed
16 18 20 21 21 21 20 18 17 17 16 16 16 16 16 16 16 15 15 14 13 14 15 15 16 17 17 17 17 18 18 19 20 21 21 21 21 21 21 22 22 23 23 23 22 22 22 23 23 22 23 23 24 26 27 29 29 26 27 31 33 35 35 32 33 36 38 38 37 36 35 35 35 35
16 18 20 21 22 21 20 18 17 16 16 16 15 16 16 16 16 16 16 16 15 15 15 15 16 16 16 17 17 18 18 18 19 20 21 22 22 21 21 22 22 22 23 23 23 22 22 22 23 23 23 23 24 25 26 28 28 26 25 28 31 33 34 34 35 36 38 39 39 37 37 36 36 36
16 19 20 22 22 22 20 18 17 16 15 15 15 15 15 15 16 16 16 16 16 16 16 15 16 16 16 17 17 18 19 19 19 20 21 22 23 23 22 23 23 22 22 23 23 22 22 22 22 23 23 24 24 25 25 26 27 27 26 28 30 32 34 35 37 37 37 40 41 40 39 38 37 37
17 19 21 22 23 21 20 18 16 15 15 15 15 15 15 15 15 15 15 15 15 15 15 15 16 16 17 17 18 18 19 20 20 20 21 21 22 23 24 24 24 23 23 23 23 23 23 22 22 22 23 23 24 25 26 26 27 28 28 29 31 32 34 36 38 38 36 38 42 42 41 40 38 38
17 19 21 23 22 21 19 17 16 15 15 15 15 15 14 14 14 14 14 14 14 14 15 16 17 18 18 18 18 19 19 19 20 20 20 20 21 22 23 24 24 24 23 23 23 24 24 23 23 23 23 23 24 25 26 26 27 28 29 31 32 33 34 35 38 39 38 39 42 43 43 42 40 39
17 19 21 23 22 20 19 17 15 15 15 15 14 14 13 13 13 13 13 13 14 15 16 17 18 18 19 19 20 20 19 19 20 20 20 20 21 21 22 23 23 23 23 22 22 23 24 24 23 23 23 24 25 25 26 27 27 28 29 32 33 34 35 35 38 41 41 41 42 43 44 43 43 42
17 19 21 22 22 20 18 16 16 15 15 14 13 12 12 12 13 13 13 14 16 17 18 19 19 19 20 20 21 21 21 21 21 21 21 22 22 22 22 23 23 23 24 23 23 23 23 24 24 23 23 24 25 26 26 27 28 29 29 31 33 35 36 37 39 40 40 42 43 43 44 45 45 44
18 19 21 22 22 20 18 17 16 16 15 14 13 13 13 13 13 13 15 17 18 19 19 20 20 20 20 21 21 21 22 23 23 23 23 24 24 25 25 25 25 24 25 25 25 25 25 25 25 25 25 25 25 26 26 26 27 29 30 31 32 34 36 38 39 39 40 43 45 46 45 46 47 46
18 20 21 22 21 20 18 17 16 15 14 13 13 13 13 13 14 15 17 18 19 19 20 20 20 21 21 22 21 22 22 23 23 24 24 23 24 24 25 25 25 25 25 25 25 26 26 27 27 27 27 26 26 27 27 27 27 28 30 31 32 33 34 36 38 40 41 42 46 49 48 47 48 48
18 20 21 22 21 19 17 16 16 15 14 13 13 13 13 13 15 16 18 19 19 19 20 20 20 21 21 22 23 23 23 24 24 24 23 23 23 23 24 25 25 25 25 25 25 26 26 26 27 28 28 28 27 27 27 27 27 27 28 30 32 33 34 35 37 39 41 43 47 52 52 49 48 50
18 20 21 21 20 18 17 16 15 14 13 13 12 12 13 14 16 17 18 18 19 19 19 20 21 21 22 23 23 24 24 25 24 24 24 24 25 25 25 26 27 27 27 28 27 27 27 27 27 28 28 29 29 28 28 27 27 27 27 28 29 32 34 35 36 38 41 44 46 49 52 52 49 48
18 20 20 20 19 17 16 15 14 14 13 12 12 12 13 14 16 17 17 18 18 18 19 20 21 21 22 22 23 23 23 23 24 24 25 25 25 26 26 26 27 27 27 28 28 27 26 26 26 25 26 26 27 28 29 29 28 27 27 27 27 29 31 34 35 37 39 43 46 47 49 53 50 47
18 19 19 19 17 16 15 14 14 13 12 12 12 12 14 15 15 16 17 17 17 18 19 19 20 20 21 21 21 21 22 22 23 24 24 24 24 25 26 26 27 27 27 27 27 27 26 25 25 24 24 23 23 25 26 27 28 28 27 27 27 28 30 32 35 37 38 40 45 46 47 50 51 49
18 18 18 18 16 15 14 14 14 13 12 12 12 13 14 14 15 16 16 16 17 17 18 18 19 19 20 20 20 21 22 22 23 23 23 23 24 24 25 25 26 27 27 27 28 28 27 27 26 26 25 24 23 23 24 25 26 26 26 26 26 27 29 30 33 37 39 40 43 45 45 48 50 51
17 18 17 16 15 14 14 14 13 12 12 12 12 13 13 14 14 15 15 16 16 17 17 18 18 19 19 20 20 21 22 22 22 23 23 24 24 24 25 25 26 26 27 28 28 28 28 28 27 27 28 27 25 24 24 23 24 24 24 25 25 26 27 29 31 34 38 38 40 44 45 46 50 51
17 17 16 15 13 13 13 13 12 12 12 12 12 12 13 13 14 15 15 15 16 16 17 17 18 18 19 19 20 21 21 22 22 23 23 24 24 25 25 25 26 26 27 28 28 28 27 27 26 27 29 30 28 26 24 21 21 22 22 23 24 24 25 26 29 32 35 36 38 42 44 45 48 50
16 16 15 14 13 13 13 12 12 11 11 12 12 12 12 12 13 14 15 15 15 15 16 17 17 18 18 19 20 21 21 22 22 23 23 23 23 24 24 25 25 26 27 28 29 28 26 25 25 26 28 29 29 28 26 22 19 19 19 20 22 23 23 25 26 28 32 35 37 40 42 42 44 48
15 15 14 13 12 12 13 12 11 11 12 12 12 11 11 12 13 14 14 14 14 15 15 16 17 17 18 19 20 21 21 22 22 22 22 23 24 25 26 26 26 27 28 28 28 27 26 24 24 25 25 26 27 27 28 26 23 19 16 16 18 19 22 24 23 23 29 34 35 37 40 40 42 47
14 14 13 12 12 12 12 11 11 11 11 12 12 12 12 12 13 13 13 13 13 14 15 15 16 17 18 19 20 21 21 21 22 22 23 24 25 26 26 26 27 27 27 27 27 27 26 24 23 23 23 23 23 24 26 27 26 23 19 15 13 14 18 22 21 20 23 29 33 35 35 35 39 44
14 13 11 11 11 12 12 11 10 10 11 11 10 10 10 11 12 12 12 12 13 13 14 15 16 17 18 19 19 20 21 21 22 23 24 24 24 24 25 25 25 26 26 26 26 26 26 24 22 22 23 22 21 21 22 23 24 24 23 19 14 11 12 15 15 12 13 21 28 30 30 33 40 43
13 12 11 11 11 12 11 10 10 10 10 10 9 9 9 10 10 11 11 11 12 13 14 15 16 16 17 18 19 20 21 21 22 22 22 22 22 23 24 24 25 25 25 25 25 25 25 25 23 22 23 23 22 21 20 20 21 22 24 22 17 12 8 8 8 5 7 15 19 22 27 35 40 41
12 11 11 11 11 12 11 10 10 10 10 10 10 10 10 10 10 10 10 11 11 12 13 14 15 16 17 18 19 20 21 21 21 21 21 22 22 23 23 24 24 24 24 24 24 23 23 23 23 23 24 24 23 22 22 23 24 24 25 25 21 13 6 4 5 2 8 15 16 18 24 27 28 29
12 11 11 11 12 11 11 11 11 10 10 10 10 10 10 10 11 11 11 11 11 12 13 14 15 16 17 18 19 20 20 21 20 21 21 21 22 22 22 23 23 22 22 22 23 22 22 23 23 23 23 23 23 22 23 25 28 28 28 28 26 21 13 7 5 2 6 11 13 14 18 22 24 27
11 11 11 12 12 11 11 11 11 10 10 10 10 10 10 11 12 12 12 11 11 12 13 13 15 16 17 18 19 19 20 20 20 20 20 21 21 22 22 22 21 21 21 22 22 22 22 23 22 22 22 22 21 21 21 21 25 27 27 27 27 26 23 18 12 5 2 7 10 12 14 19 25 27
12 12 12 12 12 11 11 11 11 10 10 10 10 10 11 11 13 13 12 12 12 12 12 13 14 15 16 17 18 19 19 19 19 19 20 20 21 21 21 21 20 20 19 20 22 23 23 22 21 21 21 20 19 20 20 18 20 23 25 25 25 25 26 26 22 15 9 3 4 6 6 10 17 22
12 12 12 12 11 11 11 11 11 11 10 10 10 10 11 12 13 13 13 12 12 12 12 12 13 14 15 16 17 17 18 18 18 18 19 19 19 19 20 20 19 18 18 19 21 22 23 23 21 20 19 19 19 18 17 16 18 20 22 23 23 23 25 26 25 22 17 13 10 9 8 4 3 10
13 13 12 11 11 11 11 11 11 11 10 11 11 11 12 13 14 14 13 12 12 11 11 12 12 13 14 15 16 16 17 17 17 17 18 18 18 18 18 18 18 18 19 19 20 21 22 22 21 19 19 19 18 16 15 15 16 17 18 19 20 21 21 22 21 20 17 14 12 14 14 13 12 13
13 12 11 11 11 11 11 11 11 10 10 11 11 12 12 13 14 14 13 12 12 11 11 11 11 12 13 14 15 15 15 16 16 16 17 17 17 17 17 17 17 18 18 18 18 19 20 20 20 20 19 18 17 16 15 15 15 15 15 16 17 18 18 19 19 18 17 14 11 12 14 12 10 12
13 12 11 11 11 11 11 11 11 10 10 10 11 12 13 14 14 14 13 12 11 10 10 10 10 11 12 12 13 14 14 15 15 15 16 16 15 15 16 16 16 17 17 17 17 17 18 19 19 20 19 18 17 16 16 16 16 16 15 14 14 14 14 15 16 16 16 15 13 11 9 7 5 8
13 12 11 11 11 11 11 11 11 11 10 10 11 12 13 13 14 14 13 12 11 10 10 10 9 10 11 11 12 13 13 14 14 14 14 14 14 14 14 14 15 15 16 16 16 16 16 17 18 18 18 17 17 16 16 17 17 17 16 14 14 13 12 12 13 14 13 12 12 12 10 9 8 9
12 11 11 11 11 11 11 11 11 11 10 11 11 12 13 13 14 14 13 12 11 10 9 9 9 9 10 10 11 12 12 13 13 13 13 13 13 13 13 13 14 14 14 14 15 14 15 15 16 16 17 17 17 17 17 17 17 16 16 16 15 13 13 13 13 12 11 10 10 10 10 9 9 9
12 11 11 11 11 11 11 11 11 11 11 11 12 12 13 13 13 14 13 12 11 10 9 9 8 8 9 9 10 10 11 11 11 11 12 12 12 12 12 12 13 13 13 13 13 13 14 14 14 15 15 15 15 16 16 16 16 16 15 15 15 15 14 13 13 12 11 10 9 8 8 8 8 7
12 12 11 11 11 11 11 11 11 11 11 11 12 12 13 13 13 13 12 11 11 10 9 8 8 8 8 8 9 9 9 9 10 10 10 10 10 11 11 11 12 12 12 13 13 13 13 13 13 14 14 14 14 15 16 16 15 15 15 14 14 15 14 14 13 12 11 10 8 8 8 8 7 7
12 12 11 11 11 11 11 11 11 11 11 11 12 12 13 13 13 12 12 11 11 10 9 8 8 7 7 7 8 8 8 8 8 8 9 9 9 9 10 10 11 11 11 12 12 12 13 13 12 13 13 13 14 14 15 15 15 14 14 14 13 13 13 13 13 12 11 10 9 7 7 7 7 7
12 12 11 11 11 11 11 11 11 11 11 11 12 13 13 13 13 12 11 11 11 10 9 8 7 7 7 7 7 7 7 7 7 7 7 8 8 8 8 9 9 10 11 11 12 12 13 13 13 14 14 14 14 14 14 14 14 14 13 13 13 13 12 12 11 11 11 10 9 8 7 6 5 5
12 12 12 11 12 12 11 11 11 11 11 11 12 13 13 13 13 12 11 10 10 10 9 8 7 7 7 7 7 6 6 6 6 6 6 6 6 7 7 8 8 9 10 11 11 12 13 14 14 14 14 14 14 15 14 14 14 14 13 13 12 12 12 12 11 10 10 9 8 8 7 6 5 4
12 12 12 12 12 12 11 11 11 11 11 11 12 12 13 13 12 12 11 11 10 10 9 8 7 7 7 7 7 6 6 6 5 5 5 5 5 6 6 7 7 8 9 10 11 11 12 13 13 14 14 14 14 14 14 14 14 14 13 13 12 12 11 11 11 10 10 9 8 7 7 6 5 4
12 12 12 13 12 12 11 11 11 11 11 11 11 12 12 12 12 12 11 11 11 10 9 8 8 7 8 7 7 7 7 6 6 6 5 5 5 5 5 6 7 7 8 9 10 10 11 12 12 13 13 13 14 14 14 14 14 14 14 13 13 12 12 11 10 10 9 9 9 8 8 7 6 5
13 13 13 13 13 12 11 11 11 11 11 11 11 11 11 11 11 11 11 11 11 10 9 9 8 8 8 8 8 8 8 7 7 7 7 7 7 6 7 7 7 8 8 9 9 10 11 11 12 12 13 13 13 14 14 13 13 13 13 13 13 13 12 12 11 10 9 9 8 8 8 8 7 7
13 14 14 14 13 12 12 11 11 11 11 11 11 11 11 11 11 11 11 11 11 10 10 9 9 9 9 9 9 9 9 9 9 9 9 9 9 9 9 9 10 10 10 10 11 11 12 12 12 13 13 14 14 14 14 14 14 13 13 13 13 13 13 12 12 11 11 10 9 9 8 8 8 8
14 14 15 14 13 13 12 12 11 11 11 11 10 10 11 11 11 11 11 11 11 11 10 10 10 10 10 10 10 11 11 11 11 12 12 12 12 12 12 13 13 13 13 13 14 14 14 14 15 15 15 16 16 16 16 16 16 16 15 15 14 14 14 14 13 13 12 12 11 11 10 10 10 9
15 15 15 14 14 13 12 12 12 11 11 10 10 10 10 11 11 11 11 11 11 11 11 11 11 11 11 12 12 12 12 13 13 14 14 14 15 15 15 16 16 17 17 17 17 18 18 18 19 19 19 20 20 20 20 20 20 20 19 19 18 17 16 15 15 15 15 14 14 13 13 12 12 12
15 15 15 14 13 13 12 12 12 12 11 11 11 11 11 11 11 11 11 11 11 12 12 12 12 12 13 13 13 14 14 15 15 15 16 17 17 18 18 19 19 20 20 21 21 21 22 22 22 22 23 23 23 24 24 24 24 24 24 24 24 23 21 20 18 18 17 17 17 17 17 16 16 15
15 15 15 14 14 13 13 12 12 12 11 11 12 12 12 12 12 12 12 12 13 13 13 13 14 14 14 14 14 15 15 16 16 17 17 18 18 19 20 21 21 22 22 23 23 24 24 24 24 24 24 25 25 25 25 26 26 26 26 26 27 27 27 26 25 23 21 20 20 20 21 21 20 19
15 15 15 15 15 14 13 13 13 12 12 13 13 13 14 13 13 13 14 14 14 14 14 15 15 15 15 16 16 17 17 17 17 18 19 19 20 21 21 22 23 23 24 25 25 25 26 26 26 27 27 27 27 28 28 28 28 28 28 28 28 28 29 29 30 29 27 25 24 23 24 24 24 24
Wind_Direction
338 338 340 341 341 341 342 343 344 343 342 340 338 338 337 336 336 335 332 330 328 326 323 320 318 319 320 320 321 320 319 318 317 316 316 316 317 316 313 311 309 307 305 303 301 298 294 290 286 282 279 276 273 270 266 265 264 258 249 246 245 245 244 240 234 232 230 228 227 228 228 228 229 230
336 336 339 341 341 342 344 344 344 342 341 339 337 337 337 336 335 334 332 332 334 333 331 330 330 331 332 332 332 331 329 327 325 324 324 323 322 320 317 313 310 307 304 303 302 301 298 294 289 285 280 277 274 271 267 265 265 262 253 249 248 245 244 243 240 235 230 228 227 227 228 229 229 229
333 335 338 341 342 343 343 343 342 341 340 338 337 338 337 335 333 333 335 336 338 339 339 341 341 342 342 341 341 340 337 335 334 332 330 328 326 324 321 317 313 309 305 303 301 301 300 297 293 288 283 278 275 273 270 265 263 261 255 251 251 247 243 242 244 241 232 227 226 225 228 229 229 229
330 334 338 341 343 342 342 341 340 340 339 338 338 337 336 335 335 337 339 340 342 342 343 345 346 346 345 344 343 342 339 337 335 333 332 329 327 324 322 320 317 313 309 304 302 301 300 298 295 292 287 281 277 274 272 269 264 259 255 252 251 250 245 241 244 246 239 231 226 225 226 227 229 231
329 333 337 341 342 341 339 339 338 338 338 338 338 338 338 339 340 342 342 343 344 345 346 348 347 346 344 343 343 341 339 337 334 333 331 329 327 325 322 321 318 315 311 306 302 301 299 299 297 294 290 286 280 276 273 271 267 262 256 252 249 249 247 244 244 247 246 238 230 226 226 226 227 231
327 332 337 339 340 339 337 336 337 338 338 339 340 340 342 343 343 343 343 345 346 347 348 348 348 346 344 344 343 342 340 338 337 334 332 330 328 326 323 320 319 316 313 309 304 301 298 297 296 294 292 289 286 281 276 272 269 264 259 255 250 247 246 244 243 245 247 245 236 227 225 225 226 228
325 331 335 338 338 336 335 337 338 340 340 341 342 343 344 344 344 345 347 348 348 348 348 348 347 346 345 345 344 342 341 340 339 338 335 333 331 329 327 324 322 320 317 314 311 306 302 298 295 291 289 287 287 285 280 276 271 266 262 257 253 250 246 244 243 243 244 246 244 236 226 223 225 227
324 330 333 335 336 334 336 338 340 342 342 342 342 344 344 345 347 349 350 349 348 348 347 346 346 346 346 346 346 344 343 342 342 341 339 338 335 332 330 328 326 323 320 317 315 312 308 304 300 295 292 288 286 285 283 280 275 270 265 260 255 252 248 245 243 242 241 242 246 245 233 223 223 225
322 327 330 333 334 334 337 341 342 342 341 341 341 342 344 347 350 351 350 348 348 347 347 347 347 348 348 347 347 347 346 345 344 343 342 339 335 331 329 327 326 324 321 317 314 311 309 306 303 300 297 292 288 285 283 281 278 273 268 263 258 254 250 247 243 241 240 239 242 245 237 227 223 223
319 324 328 332 333 334 339 341 341 339 337 338 339 342 346 349 350 350 348 348 348 347 348 349 350 350 349 348 348 348 347 346 346 345 341 338 336 333 331 328 327 326 324 321 317 314 311 308 306 304 302 298 294 289 284 282 280 276 271 266 261 256 252 250 246 242 240 238 240 242 236 229 224 221
317 322 327 331 332 335 339 339 337 335 334 336 339 343 347 348 348 348 347 348 348 348 350 351 351 350 350 350 350 348 347 347 346 343 341 339 338 337 335 333 332 331 330 327 324 320 316 313 310 308 306 303 300 296 291 286 281 277 274 270 265 260 255 251 248 245 242 238 239 242 235 228 226 222
315 320 325 329 331 334 337 335 332 331 332 335 339 343 346 347 347 347 348 348 348 350 352 352 352 351 351 351 350 348 346 345 344 343 343 342 341 340 338 337 336 336 333 330 328 324 320 316 313 310 308 305 301 298 295 292 288 282 277 273 269 264 259 253 248 246 245 240 238 241 237 229 226 224
312 318 324 328 330 332 333 331 328 328 330 334 338 342 344 345 347 348 349 348 350 353 354 352 351 351 352 351 349 347 346 346 347 347 346 345 345 343 341 340 340 340 338 335 333 330 328 325 322 320 317 312 305 299 295 293 291 287 282 277 272 267 262 256 250 245 245 243 238 238 239 234 229 224
310 317 323 327 329 330 329 326 326 327 329 333 338 341 343 345 347 349 349 350 352 355 353 351 351 352 351 350 349 349 349 350 350 349 348 348 347 345 344 344 344 343 342 341 340 337 335 334 331 329 327 324 318 310 302 296 292 288 285 280 274 270 263 256 251 245 244 245 240 235 237 238 232 223
309 316 323 325 326 326 325 324 324 325 327 332 336 339 341 344 347 350 350 351 353 354 352 352 352 352 352 351 351 352 352 353 352 350 350 350 348 347 347 347 347 345 344 345 345 342 338 335 334 333 332 330 327 321 311 302 296 292 289 284 277 272 265 256 251 246 242 242 241 236 234 235 232 225
307 315 321 322 322 323 321 320 320 321 324 328 333 336 339 344 348 350 350 351 353 353 352 353 353 352 352 352 353 355 355 355 354 353 353 351 348 348 348 347 347 347 347 347 346 343 339 335 334 334 332 331 330 327 322 313 304 297 293 289 280 272 266 258 251 246 241 237 240 238 233 233 232 226
306 314 317 318 319 319 317 315 314 316 320 324 328 332 338 345 349 350 349 350 352 352 353 354 353 352 353 354 356 358 358 357 357 357 356 352 349 349 347 346 348 349 348 347 346 345 342 339 336 335 333 332 331 330 330 329 321 309 298 292 286 277 269 262 254 248 241 234 237 238 233 233 234 226
306 311 313 314 315 314 312 311 311 315 318 320 324 332 339 347 350 348 346 348 350 352 352 353 352 353 355 357 359 0 360 360 0 360 357 354 353 352 349 349 351 351 349 349 348 348 349 346 342 339 336 335 336 335 335 335 333 325 309 296 291 286 279 273 267 259 247 236 235 236 233 232 231 225
303 307 308 309 309 308 307 308 309 312 314 317 324 334 341 347 347 344 343 346 349 350 350 351 352 354 357 360 1 2 1 1 2 1 0 360 358 354 352 353 354 352 351 351 350 350 352 350 348 346 343 341 342 342 340 338 337 335 328 315 303 295 289 285 282 274 255 238 232 234 234 230 224 221
299 301 302 302 303 304 303 304 305 306 308 312 321 330 337 340 340 337 339 343 345 346 347 349 351 354 359 1 2 3 2 2 3 3 4 2 359 356 355 355 353 352 353 355 353 352 352 352 354 355 352 350 349 347 346 347 348 348 345 337 326 314 305 298 294 282 250 232 230 231 226 217 212 212
294 295 296 297 299 300 299 299 300 299 303 310 316 322 326 329 329 329 332 337 341 343 344 346 349 354 359 2 3 4 3 3 4 4 4 2 360 359 357 354 353 354 356 358 356 354 354 355 1 4 1 359 360 358 358 1 6 8 5 357 345 334 329 324 321 304 224 213 217 216 208 205 207 209
289 289 290 292 295 296 294 295 295 297 304 311 314 318 321 322 320 319 323 330 334 338 340 342 347 353 357 1 4 4 4 4 4 3 3 3 2 1 358 355 355 356 358 360 359 358 357 358 5 9 6 4 7 10 15 18 18 21 21 18 12 5 358 344 339 327 172 170 171 184 196 201 208 212
284 284 285 288 291 291 289 291 294 298 306 310 313 318 320 318 315 312 316 322 327 331 335 340 346 351 356 1 4 5 4 3 2 2 3 4 3 1 359 356 355 355 358 2 2 2 1 1 6 10 8 7 10 19 28 27 22 21 24 27 29 32 35 28 354 295 191 181 181 196 208 206 205 210
277 278 280 284 287 287 287 290 294 299 305 308 311 317 317 314 311 308 311 318 323 328 334 339 345 351 355 360 2 3 2 1 1 1 2 3 3 1 359 355 353 355 359 4 6 5 4 3 4 6 6 6 11 22 32 30 21 21 26 27 28 31 35 36 31 17 284 249 237 234 234 224 216 216
271 273 277 281 283 284 285 290 295 299 304 306 310 314 314 311 307 305 308 314 318 324 331 337 344 350 354 358 359 359 359 358 359 0 1 2 2 1 358 354 353 356 1 6 10 9 7 5 4 4 3 4 10 21 28 26 19 22 28 28 25 27 31 33 33 36 39 14 244 231 236 234 229 225
267 270 275 277 277 279 282 288 294 298 302 306 310 313 312 309 305 304 307 311 314 321 329 336 344 349 353 356 356 355 355 356 358 359 0 1 1 360 358 355 354 357 1 7 12 12 9 6 4 6 7 8 11 16 21 23 21 24 31 33 29 29 34 36 35 36 42 51 59 58 51 53 193 211
263 266 269 270 271 275 280 286 291 295 300 305 309 312 312 308 306 305 307 309 312 319 328 336 344 348 352 353 352 352 352 353 356 358 359 359 359 359 358 356 356 360 3 6 11 14 12 8 4 6 12 15 15 12 13 19 24 27 34 39 35 31 35 42 44 43 46 52 63 75 83 94 119 148
259 261 262 263 266 272 279 284 288 292 297 303 308 311 311 308 307 306 307 308 313 320 329 337 344 347 349 348 347 348 349 350 354 358 358 357 357 358 358 358 360 3 5 6 8 12 14 12 7 7 13 19 19 16 14 16 18 20 26 34 36 32 33 40 45 50 56 59 69 98 110 111 116 133
256 256 256 259 264 271 278 283 287 291 296 303 308 310 310 309 307 307 307 309 315 323 331 337 342 344 344 343 343 344 346 348 352 357 356 354 355 357 359 0 2 5 6 5 6 8 12 15 13 11 14 19 22 23 24 22 19 17 16 21 28 30 31 35 37 39 50 58 62 77 96 97 87 104
253 252 253 258 264 271 277 281 286 291 297 304 308 310 309 309 307 306 307 310 317 324 330 334 337 339 339 339 340 341 344 347 352 354 353 352 354 357 360 2 3 5 5 4 4 6 9 13 16 16 16 18 20 23 28 29 27 23 21 21 26 31 34 37 35 32 39 54 60 59 66 74 75 80
250 250 253 257 263 270 275 280 285 291 298 305 308 309 309 308 306 305 306 310 316 321 325 328 330 333 335 337 339 341 344 347 349 351 350 351 353 356 360 3 4 4 4 2 3 6 8 12 16 18 18 18 19 21 24 28 30 29 30 30 31 33 38 42 41 37 35 44 57 60 60 64 67 70
245 247 251 257 262 268 273 279 286 292 300 306 308 309 308 307 305 304 305 309 313 317 319 322 325 329 332 336 338 340 343 345 347 348 349 350 351 355 360 4 5 4 3 3 3 5 7 10 13 16 17 18 21 24 25 25 26 27 29 33 34 35 39 42 45 46 45 45 54 63 68 71 73 73
242 245 250 256 261 267 273 278 285 292 299 305 309 308 305 303 301 302 304 306 309 312 314 317 321 325 330 333 336 338 341 343 345 347 349 350 351 355 1 5 6 6 5 5 6 8 10 11 11 13 17 18 21 25 26 25 24 23 23 26 31 34 36 38 40 44 50 53 58 67 76 82 86 89
240 244 249 255 260 266 272 277 284 292 298 304 306 303 301 300 299 301 304 306 307 309 310 311 315 320 325 330 333 336 337 340 344 347 350 351 353 358 3 6 8 10 10 10 11 12 13 14 13 14 17 19 20 23 24 22 22 22 20 21 23 26 30 33 34 36 41 46 49 57 69 78 86 92
238 242 247 252 258 263 269 275 283 291 298 301 301 299 298 298 298 301 303 304 304 305 305 306 310 315 321 325 329 332 333 336 341 347 349 353 356 359 5 9 11 14 15 16 17 17 17 18 20 20 20 20 20 20 19 18 19 19 18 18 20 20 22 25 28 30 32 34 35 40 48 60 73 83
236 239 243 248 254 260 267 275 283 290 294 296 295 295 296 297 298 301 302 301 301 301 301 303 307 313 318 321 325 327 327 330 336 343 348 352 357 0 4 9 13 16 18 20 20 20 20 20 22 24 23 21 20 19 17 15 16 16 15 14 14 15 16 17 19 21 22 23 25 28 31 35 44 55
236 237 241 245 250 256 264 272 280 285 288 289 289 291 293 295 297 299 300 301 300 299 300 303 308 312 316 318 320 320 320 321 326 334 340 345 351 357 1 6 9 13 16 17 17 17 17 17 18 19 19 19 19 18 16 16 15 14 14 12 10 10 10 10 9 9 10 11 12 11 11 13 17 22
236 238 240 242 246 252 259 267 274 278 281 282 284 286 289 292 295 298 300 302 301 301 303 306 309 311 313 314 315 314 312 313 316 320 325 329 333 340 346 351 357 1 3 5 7 8 8 8 8 8 8 9 10 10 10 11 11 11 10 10 9 7 6 4 3 1 0 359 359 357 355 352 349 348
236 239 241 242 244 249 256 262 268 271 274 276 279 282 286 289 293 297 300 302 303 304 306 307 308 309 311 311 312 310 307 306 307 309 311 314 316 319 325 329 334 341 344 346 349 351 351 353 354 354 354 354 355 356 356 357 358 360 1 0 360 0 360 359 357 355 353 350 347 344 341 337 333 328
234 237 239 241 244 249 254 259 262 264 267 271 274 279 283 287 291 296 298 301 303 304 305 305 305 306 307 307 307 307 305 304 304 305 306 308 309 311 313 316 320 324 327 330 331 332 334 335 336 337 338 339 340 340 340 341 342 343 344 345 345 346 346 347 346 345 343 342 339 335 331 328 323 318
233 234 236 239 242 248 254 258 260 261 264 268 272 276 281 286 291 295 297 300 302 303 302 302 301 302 302 302 302 301 301 300 301 302 303 304 305 307 308 310 313 315 316 318 319 319 320 321 322 323 324 325 325 325 326 327 328 327 327 327 328 328 329 329 330 329 328 327 326 323 321 318 314 309
235 234 236 238 243 250 255 258 261 262 264 269 272 275 280 285 289 293 296 299 301 301 301 300 299 298 298 298 297 297 297 297 298 299 300 301 302 303 305 306 307 309 310 311 311 312 313 313 314 315 315 315 316 316 316 316 316 316 315 314 314 314 314 313 314 314 314 313 311 309 308 306 304 301
238 237 238 241 247 252 257 260 262 263 267 271 274 276 279 282 286 290 294 297 299 301 301 301 300 299 299 299 299 299 298 298 299 299 300 301 302 302 303 304 304 305 306 307 307 307 308 309 310 310 311 311 311 311 311 311 310 310 309 309 309 309 308 306 303 302 301 301 300 298 296 295 294 293
239 238 239 243 248 253 256 258 261 263 267 271 273 275 277 280 283 288 292 296 299 302 303 303 303 303 303 303 303 302 301 300 300 300 300 300 301 301 301 301 301 302 302 302 302 303 303 304 304 304 304 305 305 305 305 305 305 305 305 305 304 305 305 304 302 299 296 294 292 290 289 289 288 286
240 239 239 242 247 251 254 257 260 263 266 269 271 274 278 281 286 291 294 297 300 302 301 301 301 301 302 302 300 299 299 297 297 297 297 296 296 297 297 296 296 296 297 296 296 297 297 297 298 298 298 298 298 298 298 298 297 298 298 297 298 298 299 299 299 298 296 293 289 286 284 284 284 283